DW2489 Weather Reports


Display with metric or nautical units.
time (UTC)temp
F
wind
direction
speed
MPH
gust
MPH
rain 1hr
in
rain 24hr
in
rain mn
in
humidity
%
barometer
mb
20260503225810 55 280 4.0 19.0 0.00 0.00 0.00 1008.1
20260503225309 55 287 9.0 20.0 0.00 0.00 0.00 1008.1
20260503224807 56 314 4.0 22.0 0.00 0.00 0.00 1007.8
20260503224306 56 271 10.0 22.0 0.00 0.00 0.00 1007.8
20260503223801 56 294 10.0 22.0 0.00 0.00 0.00 1007.8
20260503223300 56 296 4.0 26.0 0.00 0.00 0.00 1007.8
20260503222759 57 279 10.0 26.0 0.00 0.00 0.00 1007.8
20260503222258 57 289 5.0 24.0 0.00 0.00 0.00 1007.5
20260503221726 57 259 9.0 24.0 0.00 0.00 0.00 1007.5
20260503221223 57 265 10.0 24.0 0.00 0.00 0.00 1007.5
20260503220722 57 255 9.0 20.0 0.00 0.00 0.00 1007.5
20260503220219 58 272 9.0 20.0 0.00 0.00 0.00 1007.5
20260503215718 58 266 6.0 20.0 0.00 0.00 0.00 1007.5
20260503215216 58 0 0.0 16.0 0.00 0.00 0.00 1007.5
20260503214714 58 266 6.0 15.0 0.00 0.00 0.00 1007.5
20260503214141 58 217 7.0 19.0 0.00 0.00 0.00 1007.5
20260503213639 58 273 5.0 25.0 0.00 0.00 0.00 1007.5
20260503213138 58 280 3.0 25.0 0.00 0.00 0.00 1007.5
20260503212637 58 267 8.0 22.0 0.00 0.00 0.00 1007.5
20260503212136 58 284 7.0 22.0 0.00 0.00 0.00 1007.5
20260503211634 58 249 7.0 22.0 0.00 0.00 0.00 1007.5
20260503211133 57 252 8.0 15.0 0.00 0.00 0.00 1007.5
20260503210632 57 295 4.0 15.0 0.00 0.00 0.00 1007.5
20260503210130 57 251 8.0 15.0 0.00 0.00 0.00 1007.5
20260503205627 57 265 3.0 13.0 0.00 0.00 0.00 1007.5
20260503205125 57 275 3.0 13.0 0.00 0.00 0.00 1007.8
20260503204624 57 290 4.0 13.0 0.00 0.00 0.00 1007.8
20260503204123 57 305 5.0 12.0 0.00 0.00 0.00 1007.8
20260503203621 56 264 1.0 7.0 0.00 0.00 0.00 1007.8
20260503203121 55 259 4.0 10.0 0.00 0.00 0.00 1007.8
20260503202619 55 1 2.0 10.0 0.00 0.00 0.00 1008.1
20260503202117 55 246 3.0 10.0 0.00 0.00 0.00 1007.8
20260503201616 55 356 3.0 10.0 0.00 0.00 0.00 1008.1
20260503201114 55 309 1.0 10.0 0.00 0.00 0.00 1008.1
20260503200612 55 303 4.0 10.0 0.00 0.00 0.00 1008.1
20260503200111 55 352 4.0 10.0 0.00 0.00 0.00 1008.1
20260503195609 56 331 6.0 12.0 0.00 0.00 0.00 1008.1
20260503195108 55 2 6.0 12.0 0.00 0.00 0.00 1008.1
20260503194535 55 319 5.0 13.0 0.00 0.00 0.00 1008.1
20260503194034 55 283 5.0 13.0 0.00 0.00 0.00 1008.5
20260503193533 55 290 4.0 10.0 0.00 0.00 0.00 1008.5
20260503193032 55 262 2.0 13.0 0.00 0.00 0.00 1008.5
20260503192531 55 295 4.0 18.0 0.00 0.00 0.00 1008.8
20260503192030 54 248 9.0 18.0 0.00 0.00 0.00 1008.8
20260503191527 54 287 5.0 19.0 0.00 0.00 0.00 1008.8
20260503190923 54 12 2.0 19.0 0.00 0.00 0.00 1008.8
20260503190422 54 301 7.0 19.0 0.00 0.00 0.00 1008.8
20260503185919 54 264 11.0 18.0 0.00 0.00 0.00 1008.8
20260503185418 54 313 5.0 15.0 0.00 0.00 0.00 1008.8
20260503184917 54 330 5.0 15.0 0.00 0.00 0.00 1008.8
20260503184415 54 345 3.0 15.0 0.00 0.00 0.00 1009.1
20260503183914 54 299 3.0 15.0 0.00 0.00 0.00 1009.1
20260503183413 54 272 8.0 15.0 0.00 0.00 0.00 1009.1
20260503182912 54 284 2.0 19.0 0.00 0.00 0.00 1009.1
20260503182410 54 360 6.0 19.0 0.00 0.00 0.00 1009.1
20260503181909 53 257 5.0 19.0 0.00 0.00 0.00 1009.1
20260503181408 52 260 7.0 16.0 0.00 0.00 0.00 1009.1
20260503180907 52 287 7.0 16.0 0.00 0.00 0.00 1009.1
20260503180334 52 266 6.0 15.0 0.00 0.00 0.00 1009.1
20260503175832 52 354 3.0 13.0 0.00 0.00 0.00 1009.5
20260503175331 52 241 3.0 15.0 0.00 0.00 0.00 1009.5
20260503174829 52 322 4.0 15.0 0.00 0.00 0.00 1009.1
20260503174328 51 262 2.0 15.0 0.00 0.00 0.00 1009.5
20260503173827 51 269 5.0 15.0 0.00 0.00 0.00 1009.5
20260503173325 52 279 7.0 15.0 0.00 0.00 0.00 1009.5
20260503172824 52 281 5.0 19.0 0.00 0.00 0.00 1009.5
20260503172321 52 358 5.0 19.0 0.00 0.00 0.00 1009.5
20260503171819 52 358 6.0 19.0 0.00 0.00 0.00 1009.5
20260503171318 52 327 4.0 15.0 0.00 0.00 0.00 1009.5
20260503170745 53 304 6.0 22.0 0.00 0.00 0.00 1009.5
20260503170244 53 50 3.0 22.0 0.00 0.00 0.00 1009.5
20260503150800 51 314 5.0 12.0 0.00 0.00 0.00 1010.2
20260503150155 51 272 6.0 15.0 0.00 0.00 0.00 1010.2
20260503140133 51 4 7.0 16.0 0.00 0.00 0.00 1009.8
20260503131008 48 13 3.0 6.0 0.00 0.00 0.00 1009.9
20260503130508 48 16 3.0 9.0 0.00 0.00 0.00 1009.9
20260503110507 40 46 0.0 2.0 0.00 0.00 0.00 1009.4
20260503090506 37 239 0.0 3.0 0.00 0.00 0.00 1009.1
20260503081506 37 272 0.0 2.0 0.00 0.00 0.00 1009.6
20260503081007 37 272 0.0 0.0 0.00 0.00 0.00 1009.6
20260503080506 37 272 0.0 0.0 0.00 0.00 0.00 1009.7
20260503072506 38 269 0.0 3.0 0.00 0.00 0.00 1009.8
20260503072006 38 304 0.0 3.0 0.00 0.00 0.00 1009.8
20260503071536 38 312 0.0 3.0 0.00 0.00 0.00 1009.9
20260503071006 39 312 0.0 4.0 0.00 0.00 0.00 1009.9
20260503070507 39 312 2.0 4.0 0.00 0.00 0.00 1009.9
20260503055005 37 218 0.0 2.0 0.00 0.00 0.00 1010.5
20260503054005 38 212 0.0 0.0 0.00 0.00 0.00 1010.4
20260503053505 38 281 0.0 3.0 0.00 0.00 0.00 1010.4
20260503053005 38 273 0.0 3.0 0.00 0.00 0.00 1010.5
20260503052505 38 273 2.0 2.0 0.00 0.00 0.00 1010.4
20260503052005 38 273 0.0 0.0 0.00 0.00 0.00 1010.6
20260503051505 38 273 0.0 0.0 0.00 0.00 0.00 1010.6
20260503051005 38 273 0.0 2.0 0.00 0.00 0.00 1010.7
20260503050505 38 273 0.0 3.0 0.00 0.00 0.00 1010.6
20260503050034 38 273 0.0 3.0 0.00 0.00 0.00 1010.7
20260503045505 38 273 0.0 3.0 0.00 0.00 0.00 1010.8
20260503045005 38 344 0.0 0.0 0.00 0.01 0.00 1010.8
20260503044506 38 344 0.0 0.0 0.00 0.02 0.00 1010.8
20260503044004 39 344 0.0 0.0 0.00 0.02 0.00 1010.9
20260503043504 39 291 0.0 0.0 0.00 0.02 0.00 1010.9
20260503043005 39 336 0.0 3.0 0.00 0.02 0.00 1010.9
20260503042504 39 276 0.0 3.0 0.00 0.02 0.00 1010.9
20260503042019 39 276 2.0 3.0 0.00 0.02 0.00 1010.9
20260503041504 40 276 2.0 3.0 0.00 0.02 0.00 1010.9
20260503041004 40 276 0.0 3.0 0.00 0.02 0.00 1011.0
20260503040505 40 276 0.0 4.0 0.00 0.02 0.00 1010.9
20260503040004 40 276 0.0 6.0 0.00 0.02 0.00 1011.2
20260503035504 41 276 0.0 6.0 0.00 0.02 0.02 1011.2
20260503035004 41 284 3.0 7.0 0.00 0.02 0.02 1011.3
20260503034504 41 294 0.0 7.0 0.00 0.02 0.02 1011.3
20260503034004 41 287 0.0 6.0 0.00 0.02 0.02 1011.3
20260503033533 41 306 4.0 4.0 0.00 0.02 0.02 1011.1
20260503033034 41 327 0.0 3.0 0.00 0.02 0.02 1011.1
20260503032504 42 283 0.0 2.0 0.00 0.02 0.02 1011.0
20260503032004 42 236 0.0 2.0 0.00 0.02 0.02 1011.1
20260503031519 42 235 0.0 2.0 0.00 0.02 0.02 1011.1
20260503031004 42 235 0.0 3.0 0.00 0.02 0.02 1011.2
20260503030520 43 235 0.0 3.0 0.00 0.02 0.02 1011.3
20260503030004 43 235 0.0 3.0 0.00 0.02 0.02 1011.2
20260503025505 43 235 0.0 3.0 0.00 0.02 0.02 1011.3
20260503025003 43 235 2.0 3.0 0.00 0.02 0.02 1011.3
20260503024503 43 235 0.0 4.0 0.00 0.02 0.02 1011.3
20260503024004 43 235 2.0 6.0 0.00 0.02 0.02 1011.3
20260503023503 43 235 2.0 6.0 0.00 0.02 0.02 1011.3
20260503023004 43 235 0.0 3.0 0.00 0.02 0.02 1011.4
20260503022504 44 235 0.0 3.0 0.00 0.02 0.02 1011.5
20260503022004 44 235 0.0 0.0 0.00 0.02 0.02 1011.5
20260503021503 44 235 0.0 3.0 0.00 0.02 0.02 1011.6
20260503021018 44 235 0.0 6.0 0.00 0.02 0.02 1011.6
20260503020503 44 235 2.0 6.0 0.00 0.02 0.02 1011.6
20260503020003 44 235 0.0 4.0 0.00 0.02 0.02 1011.7
20260503015503 44 294 0.0 4.0 0.00 0.02 0.02 1011.6
20260503015003 44 293 2.0 7.0 0.00 0.02 0.02 1011.6
20260503014533 44 287 2.0 7.0 0.00 0.02 0.02 1011.6
20260503014004 44 298 0.0 6.0 0.00 0.02 0.02 1011.7
20260503013503 44 297 0.0 6.0 0.00 0.02 0.02 1011.7
20260503013004 44 294 6.0 7.0 0.00 0.02 0.02 1011.6
20260503012503 44 308 6.0 7.0 0.00 0.02 0.02 1011.6
20260503012003 44 254 4.0 6.0 0.00 0.02 0.02 1011.6
20260503011503 44 295 3.0 6.0 0.00 0.02 0.02 1011.6
20260503011003 44 286 0.0 6.0 0.00 0.02 0.02 1011.7
20260503010503 45 286 0.0 4.0 0.00 0.02 0.02 1011.6
20260503010003 45 286 3.0 6.0 0.00 0.02 0.02 1011.5
20260503005532 45 286 0.0 6.0 0.00 0.02 0.02 1011.4
20260503005003 45 286 6.0 6.0 0.00 0.02 0.02 1011.4
20260503004503 45 253 3.0 4.0 0.00 0.02 0.02 1011.4
20260503004003 46 253 2.0 4.0 0.00 0.02 0.02 1011.5
20260503003503 46 253 3.0 6.0 0.00 0.02 0.02 1011.4
20260503003003 46 238 2.0 6.0 0.00 0.02 0.02 1011.4
20260503002503 46 274 2.0 4.0 0.00 0.02 0.02 1011.3
20260503002004 46 274 3.0 6.0 0.00 0.02 0.02 1011.3
20260503001503 47 274 3.0 7.0 0.00 0.02 0.02 1011.3
20260503001004 47 274 3.0 7.0 0.00 0.02 0.02 1011.3
20260503000532 47 259 0.0 9.0 0.00 0.02 0.02 1011.2
20260503000048 48 257 6.0 9.0 0.00 0.02 0.02 1011.3
20260502235502 48 265 3.0 10.0 0.00 0.02 0.02 1011.2
20260502235102 48 259 4.0 13.0 0.00 0.02 0.02 1011.2
20260502234504 48 253 0.0 13.0 0.00 0.02 0.02 1011.2
20260502234017 48 290 12.0 12.0 0.00 0.02 0.02 1011.1
20260502233532 49 264 2.0 12.0 0.00 0.02 0.02 1011.2
20260502233002 49 273 0.0 9.0 0.00 0.02 0.02 1011.0
20260502232502 49 285 4.0 9.0 0.00 0.02 0.02 1011.0
20260502232032 49 253 3.0 7.0 0.00 0.02 0.02 1011.0
20260502231502 50 248 0.0 7.0 0.00 0.02 0.02 1010.9
20260502231002 50 293 3.0 13.0 0.00 0.02 0.02 1010.9
20260502230532 50 311 0.0 13.0 0.00 0.02 0.02 1011.0